Home   Weather   Mainz   Past weeks
Flag for Germany

Past Weather in Mainz, Rhineland-Palatinate, Germany — Yesterday and Last 2 Weeks

Now
70 °F

Sunny.


Feels Like: 70 °F
Forecast: 78 / 56 °F
Wind: 14 mph from East

Location: Wiesbaden Airport

Current Time: Jun 1, 2020 at 11:43:54 am

Latest Report: Jun 1, 2020 at 10:56 am


Visibility: N/A

Pressure: 30.17 "Hg

Humidity: 43%

Dew Point: 46 °F

Location of MainzLocation

Past Weather in Mainz — Graph

°F

Mainz Temperature Yesterday

Maximum temperature yesterday: 70 °F (at 4:56 pm)
Minimum temperature yesterday: 53 °F (at 5:56 am)
Average temperature yesterday: 62 °F

High & Low Weather Summary for the Past Weeks

 TemperatureHumidityPressure
High79 °F (May 19, 4:56 pm)100% (May 24, 3:56 am)30.55 "Hg (May 24, 3:56 am)
Low45 °F (May 24, 3:56 am)21% (May 28, 5:56 pm)30.04 "Hg (May 22, 6:56 pm)
Average63 °F54%30.28 "Hg
* Reported May 17 9:56 am — Jun 1 9:56 am, Mainz. Weather by CustomWeather, © 2020

Note: Actual official high and low records may vary slightly from our data, if they occured in-between our weather recording intervals... More about our weather records

Mainz Weather History for the Previous 24 Hours

Scroll right to see more
 ConditionsComfort  
Time TempWeatherWind HumidityBarometerVisibility
9:56 am
Mon, Jun 1
68 °FSunny.9 mph46%30.18 "HgN/A
8:56 am64 °FSunny.10 mph52%30.18 "HgN/A
7:56 am62 °FSunny.13 mph54%30.17 "HgN/A
6:56 am57 °FSunny.5 mph63%30.17 "HgN/A
5:56 am54 °FSunny.3 mph67%30.17 "HgN/A
4:56 am56 °FClear.5 mph60%30.16 "HgN/A
3:56 am55 °FClear.6 mph62%30.17 "HgN/A
2:56 am55 °FClear.No wind63%30.18 "HgN/A
1:56 am55 °FClear.5 mph63%30.18 "HgN/A
12:56 am59 °FClear.3 mph54%30.18 "HgN/A
11:56 pm
Sun, May 31
61 °FClear.6 mph48%30.17 "HgN/A
10:56 pm61 °FClear.9 mph48%30.17 "HgN/A
9:56 pm63 °FClear.8 mph45%30.16 "HgN/A
8:56 pm66 °FSunny.8 mph40%30.15 "HgN/A
7:56 pm67 °FSunny.7 mph35%30.14 "HgN/A
6:56 pm68 °FSunny.10 mph38%30.14 "HgN/A
5:56 pm68 °FSunny.9 mph38%30.13 "HgN/A
4:56 pm70 °FSunny.12 mph35%30.14 "HgN/A
3:56 pm68 °FPassing clouds.15 mph38%30.14 "HgN/A
2:56 pm68 °FSunny.14 mph35%30.14 "HgN/A
2:28 pm68 °FSunny.15 mph35%30.14 "HgN/A
1:56 pm66 °FPassing clouds.8 mph37%30.15 "HgN/A
12:56 pm66 °FPassing clouds.10 mph37%30.16 "HgN/A
11:59 am64 °FPassing clouds.13 mph43%30.17 "HgN/A
Weather by CustomWeather, © 2020

See weather overview

Advertising